カタログに戻る

STARLINK-2096

運用中通信VLEO
NORAD 47376·PAYLOAD·🇺🇸 United States

打ち上げ Jan 20, 2021 から Cape Canaveral Space Force Station

Loading…

次のパス (今後24時間)

TLE

最新Source: CelesTrak SupGP

元期: Sep 14, 2026, 21:31 UTC

1 47376C 21005AD  26257.89701389  .00046686  00000+0  15019-2 0  2576
2 47376  53.1582 262.0038 0001264  97.9331  27.2001 15.31666579    11

AllMySatでSTARLINK-2096をリアルタイム追跡

Download on the App Store